EW4271 Weather Reports


time (UTC)temp
F
wind
direction
speed
knots
gust
knots
rain 1hr
in
rain 24hr
in
rain mn
in
humidity
%
barometer
mb
20260901173603 65 144 0.9 3.5 0.00 0.34 0.02 75 1028.9
20260901173138 65 147 0.9 2.6 0.00 0.34 0.02 75 1028.8
20260901172610 65 193 0.0 2.6 0.00 0.34 0.02 74 1028.8
20260901172105 65 142 0.0 1.7 0.00 0.34 0.02 76 1028.7
20260901171601 65 142 0.0 2.6 0.00 0.34 0.02 76 1028.8
20260901171116 65 142 0.0 2.6 0.00 0.34 0.02 75 1028.7
20260901170629 65 130 0.9 2.6 0.00 0.34 0.02 76 1028.8
20260901165616 65 146 0.0 5.2 0.00 0.34 0.02 77 1028.8
20260901165110 65 149 0.9 5.2 0.00 0.34 0.02 80 1028.8
20260901164603 64 46 0.0 4.3 0.00 0.34 0.02 82 1028.7
20260901164137 64 157 0.9 4.3 0.00 0.34 0.02 84 1028.7
20260901163610 64 58 0.9 2.6 0.00 0.34 0.02 84 1028.7
20260901163108 63 198 0.0 1.7 0.00 0.34 0.02 86 1028.6
20260901162602 63 61 0.9 2.6 0.00 0.34 0.02 86 1028.6
20260901162115 63 34 0.9 4.3 0.00 0.34 0.02 85 1028.4
20260901161609 63 171 1.7 4.3 0.00 0.34 0.02 87 1028.5
20260901161103 62 112 0.0 1.7 0.00 0.34 0.02 88 1028.4
20260901160617 62 143 0.0 1.7 0.00 0.34 0.02 90 1028.3
20260901160131 61 138 0.0 1.7 0.00 0.34 0.02 88 1028.2
20260901155604 61 173 0.0 0.9 0.00 0.34 0.02 91 1028.2
20260901155140 61 173 0.0 0.0 0.00 0.34 0.02 92 1028.2
20260901154617 61 173 0.0 0.9 0.00 0.34 0.02 93 1028.2
20260901154112 60 173 0.0 1.7 0.00 0.34 0.02 93 1028.2
20260901153626 60 328 0.0 0.9 0.00 0.34 0.02 94 1028.3
20260901153119 60 328 0.0 0.0 0.00 0.34 0.02 94 1028.3
20260901152613 59 328 0.0 0.0 0.00 0.34 0.02 94 1028.3
20260901152107 59 328 0.0 0.0 0.00 0.34 0.02 94 1028.3
20260901151602 59 328 0.0 0.0 0.00 0.34 0.02 95 1028.2
20260901151115 59 328 0.0 0.0 0.00 0.34 0.02 95 1028.2
20260901150613 59 328 0.0 0.0 0.00 0.34 0.02 95 1028.2
20260901150107 59 328 0.0 0.0 0.00 0.34 0.02 95 1028.1
20260901145620 58 328 0.0 0.0 0.00 0.34 0.02 95 1028.3
20260901145114 59 328 0.0 0.0 0.00 0.34 0.02 95 1028.1
20260901144608 59 328 0.0 0.0 0.00 0.34 0.02 95 1028.1
20260901144102 58 328 0.0 0.0 0.00 0.34 0.02 95 1028.1
20260901143617 58 328 0.0 0.0 0.00 0.34 0.02 95 1028.1
20260901143111 58 328 0.0 0.0 0.00 0.34 0.02 95 1028.0
20260901142608 58 328 0.0 0.0 0.00 0.34 0.02 95 1027.9
20260901142104 58 328 0.0 0.0 0.00 0.34 0.02 95 1027.9
20260901141616 58 328 0.0 0.0 0.00 0.34 0.02 95 1027.9
20260901141110 58 328 0.0 0.0 0.00 0.34 0.02 95 1028.0
20260901140604 57 328 0.0 0.0 0.00 0.34 0.02 95 1028.0
20260901140140 57 328 0.0 0.0 0.00 0.34 0.02 95 1028.0
20260901135633 57 328 0.0 0.0 0.00 0.34 0.02 95 1028.0
20260901135106 57 328 0.0 0.0 0.00 0.34 0.02 95 1028.1
20260901134604 57 328 0.0 0.9 0.00 0.34 0.02 95 1028.2
20260901134118 57 328 0.0 0.9 0.00 0.34 0.02 95 1028.1
20260901133613 57 328 0.0 0.0 0.00 0.34 0.02 94 1028.0
20260901133107 57 328 0.0 0.0 0.00 0.34 0.02 94 1028.0
20260901132621 57 328 0.0 0.0 0.00 0.34 0.02 94 1028.0
20260901132135 57 328 0.0 0.0 0.00 0.34 0.02 95 1027.9
20260901131607 57 328 0.0 0.0 0.00 0.34 0.02 94 1027.8
20260901131101 57 328 0.0 0.0 0.00 0.34 0.02 94 1027.7
20260901130615 57 328 0.0 0.0 0.00 0.34 0.02 94 1027.5
20260901130113 57 328 0.0 0.0 0.00 0.34 0.02 94 1027.6
20260901125607 57 328 0.0 0.0 0.00 0.34 0.02 94 1027.7
20260901125102 57 328 0.0 0.0 0.01 0.34 0.02 94 1027.6
20260901124636 57 328 0.0 0.0 0.01 0.34 0.02 94 1027.6
20260901124108 57 328 0.0 0.0 0.01 0.34 0.02 94 1027.6
20260901123602 57 328 0.0 0.0 0.01 0.34 0.02 94 1027.5
20260901123116 57 328 0.0 0.0 0.01 0.34 0.02 94 1027.6
20260901122610 57 328 0.0 0.0 0.02 0.34 0.02 94 1027.7
20260901122108 57 328 0.0 0.0 0.02 0.34 0.02 94 1027.7
20260901121602 57 328 0.0 0.0 0.02 0.34 0.02 94 1027.7
20260901121116 57 328 0.0 0.0 0.02 0.34 0.02 94 1027.8
20260901120630 58 328 0.0 0.0 0.02 0.34 0.02 94 1027.8
20260901115618 58 328 0.0 0.0 0.02 0.34 0.02 94 1028.0
20260901115111 58 328 0.0 0.0 0.01 0.33 0.01 94 1028.1
20260901114605 58 328 0.0 0.0 0.01 0.33 0.01 94 1028.1
20260901114103 58 328 0.0 0.0 0.01 0.33 0.01 94 1028.1
20260901113617 58 328 0.0 0.0 0.01 0.33 0.01 94 1028.0
20260901113111 59 328 0.0 0.0 0.01 0.33 0.01 94 1028.1
20260901112604 59 328 0.0 0.0 0.00 0.32 0.00 94 1028.0
20260901112119 59 328 0.0 0.0 0.00 0.32 0.00 94 1027.9
20260901111612 59 328 0.0 0.0 0.00 0.32 0.00 94 1027.9
20260901111106 59 328 0.0 0.0 0.00 0.32 0.00 94 1028.0
20260901110605 59 328 0.0 0.0 0.00 0.32 0.00 94 1028.0
20260901110118 59 328 0.0 0.0 0.00 0.32 0.00 94 1027.9
20260901105611 59 328 0.0 0.0 0.00 0.32 0.00 94 1027.9
20260901105104 59 328 0.0 0.0 0.00 0.32 0.00 94 1027.8
20260901104618 59 328 0.0 0.0 0.00 0.32 0.00 94 1027.7
20260901104113 59 328 0.0 0.0 0.00 0.32 0.00 94 1027.7
20260901103607 59 328 0.0 0.0 0.00 0.32 0.00 94 1027.7
20260901103101 59 328 0.0 0.0 0.00 0.32 0.00 94 1027.8
20260901102615 59 328 0.0 0.0 0.00 0.32 0.00 94 1027.8
20260901102113 59 328 0.0 0.0 0.00 0.32 0.00 94 1027.7
20260901101608 59 328 0.0 0.0 0.00 0.32 0.00 94 1027.8
20260901101102 59 328 0.0 0.0 0.00 0.32 0.00 94 1027.9
20260901100615 59 328 0.0 0.0 0.00 0.32 0.00 94 1028.1
20260901100129 59 328 0.0 0.0 0.00 0.32 0.00 94 1028.1
20260901095602 59 328 0.0 0.0 0.00 0.32 0.00 94 1028.2
20260901095116 59 328 0.0 0.0 0.00 0.32 0.00 94 1028.1
20260901094610 59 328 0.0 0.0 0.00 0.32 0.00 94 1028.3
20260901094107 59 328 0.0 0.0 0.00 0.32 0.00 94 1028.3
20260901093602 59 328 0.0 0.0 0.00 0.32 0.00 94 1028.4
20260901093115 59 328 0.0 0.0 0.00 0.32 0.00 94 1028.5
20260901092630 58 328 0.0 0.0 0.00 0.32 0.00 94 1028.4
20260901092102 58 328 0.0 0.0 0.00 0.32 0.00 94 1028.5
20260901091615 58 328 0.0 0.9 0.00 0.32 0.00 94 1028.4
20260901091108 58 328 0.0 0.9 0.00 0.32 0.00 94 1028.4
20260901090602 58 319 0.0 0.0 0.00 0.32 0.00 93 1028.3
20260901090116 58 169 0.0 0.0 0.00 0.32 0.00 93 1028.3
20260901085630 58 169 0.0 0.0 0.00 0.32 0.00 93 1028.0
20260901085107 58 169 0.0 0.0 0.00 0.32 0.00 93 1027.8
20260901084603 58 169 0.0 0.0 0.00 0.32 0.00 93 1027.6
20260901084118 58 169 0.0 0.0 0.00 0.32 0.00 94 1027.6
20260901083612 58 169 0.0 0.0 0.00 0.32 0.00 94 1027.5
20260901083106 58 169 0.0 0.0 0.00 0.32 0.00 94 1027.5
20260901082620 58 169 0.0 0.0 0.00 0.32 0.00 94 1027.4
20260901082113 58 169 0.0 0.0 0.00 0.32 0.00 94 1027.3
20260901081613 58 169 0.0 0.0 0.00 0.32 0.00 93 1027.3
20260901081106 58 169 0.0 0.0 0.00 0.32 0.00 93 1027.4
20260901080620 58 169 0.0 0.0 0.00 0.32 0.00 94 1027.5
20260901080114 58 169 0.0 0.0 0.00 0.32 0.00 94 1027.6
20260901075608 58 169 0.0 0.0 0.00 0.32 0.00 94 1027.6
20260901075101 58 169 0.0 0.0 0.00 0.32 0.00 94 1027.6
20260901074615 58 169 0.0 0.0 0.00 0.32 0.00 94 1027.6
20260901074108 58 169 0.0 0.0 0.00 0.32 0.00 94 1027.6
20260901073623 58 169 0.0 0.0 0.00 0.32 0.00 94 1027.7
20260901073101 58 169 0.0 0.0 0.00 0.32 0.00 94 1027.7
20260901072614 58 169 0.0 0.0 0.00 0.32 0.00 94 1027.7
20260901072109 58 169 0.0 0.0 0.00 0.32 0.00 94 1027.8
20260901071603 58 169 0.0 0.0 0.00 0.32 0.00 94 1027.7
20260901071136 58 169 0.0 0.0 0.00 0.32 0.00 94 1027.7
20260901070610 58 169 0.0 0.0 0.00 0.32 0.00 93 1027.5
20260901070105 58 169 0.0 0.0 0.00 0.32 0.00 93 1027.6
20260901065618 58 169 0.0 0.0 0.01 0.32 0.00 93 1027.7
20260901065107 58 169 0.0 0.0 0.01 0.32 0.00 93 1027.6
20260901064605 58 169 0.0 0.0 0.01 0.32 0.00 93 1027.6
20260901064139 59 169 0.0 0.0 0.01 0.32 0.00 93 1027.5
20260901063611 59 169 0.0 0.0 0.01 0.32 0.00 93 1027.4
20260901063105 59 169 0.0 0.0 0.01 0.32 0.32 93 1027.4
20260901062618 59 169 0.0 0.0 0.01 0.32 0.32 93 1027.4
20260901062112 59 169 0.0 0.0 0.01 0.32 0.32 93 1027.4
20260901061607 59 169 0.0 0.0 0.01 0.32 0.32 93 1027.4
20260901061101 59 169 0.0 0.0 0.01 0.32 0.32 93 1027.4
20260901060619 59 169 0.0 0.0 0.01 0.32 0.32 93 1027.4
20260901060112 59 169 0.0 0.0 0.01 0.32 0.32 93 1027.5
20260901055627 59 169 0.0 0.0 0.00 0.31 0.31 93 1027.5
20260901055120 59 169 0.0 0.0 0.00 0.31 0.31 93 1027.6
20260901054635 59 169 0.0 0.0 0.00 0.31 0.31 93 1027.5
20260901054108 59 169 0.0 0.0 0.00 0.31 0.31 93 1027.6
20260901053603 59 169 0.0 0.0 0.00 0.31 0.31 93 1027.6
20260901053115 59 169 0.0 0.0 0.00 0.31 0.31 93 1027.6
20260901052609 60 169 0.0 0.0 0.00 0.31 0.31 93 1027.9
20260901052107 60 169 0.0 0.0 0.00 0.31 0.31 93 1027.9
20260901051621 60 169 0.0 0.0 0.00 0.31 0.31 93 1027.8
20260901051114 60 169 0.0 0.0 0.00 0.31 0.31 93 1027.5
20260901050608 60 169 0.0 0.0 0.00 0.31 0.31 93 1027.6
20260901050100 60 169 0.0 0.0 0.00 0.31 0.31 93 1027.9
20260901045635 60 169 0.0 0.0 0.00 0.31 0.31 93 1028.3
20260901045107 60 169 0.0 0.0 0.00 0.31 0.31 93 1028.2
20260901044637 60 169 0.0 0.0 0.00 0.31 0.31 93 1028.2
20260901044108 60 169 0.0 0.0 0.00 0.31 0.31 93 1028.1
20260901043607 60 169 0.0 0.0 0.00 0.31 0.31 93 1028.2
20260901043119 60 169 0.0 0.0 0.00 0.31 0.31 93 1028.2
20260901042634 60 169 0.0 0.0 0.00 0.31 0.31 93 1028.3
20260901042107 60 169 0.0 0.0 0.00 0.31 0.31 93 1028.3
20260901041601 60 169 0.0 0.0 0.00 0.31 0.31 93 1028.4
20260901041115 60 169 0.0 0.0 0.00 0.31 0.31 93 1028.5
20260901040610 60 169 0.0 0.0 0.00 0.31 0.31 93 1028.5
20260901040123 60 169 0.0 0.0 0.00 0.31 0.31 94 1028.5
20260901035616 60 169 0.0 0.0 0.00 0.31 0.31 93 1028.3
20260901035130 60 169 0.0 0.0 0.00 0.31 0.31 93 1028.5
20260901034607 60 169 0.0 0.0 0.00 0.31 0.31 93 1028.5
20260901034120 60 169 0.0 0.0 0.00 0.31 0.31 93 1028.5
20260901033633 60 169 0.0 0.0 0.00 0.31 0.31 93 1028.4
20260901033127 60 169 0.0 0.0 0.00 0.31 0.31 93 1028.3
20260901032601 60 169 0.0 0.0 0.00 0.31 0.31 93 1028.2
20260901032115 60 169 0.0 0.0 0.00 0.31 0.31 93 1028.1
20260901031629 60 169 0.0 0.0 0.00 0.31 0.31 92 1027.7
20260901031102 60 169 0.0 0.0 0.00 0.31 0.31 92 1027.6
20260901030617 60 169 0.0 0.0 0.00 0.31 0.31 92 1027.4
20260901030130 60 169 0.0 0.0 0.00 0.31 0.31 92 1027.4
20260901025606 60 169 0.0 0.0 0.00 0.31 0.31 92 1027.4
20260901025140 60 169 0.0 0.0 0.00 0.31 0.31 92 1027.3
20260901024612 60 169 0.0 0.0 0.00 0.31 0.31 92 1027.3
20260901024106 60 169 0.0 0.0 0.00 0.31 0.31 92 1027.4
20260901023600 60 169 0.0 0.0 0.00 0.31 0.31 92 1027.1
20260901023114 60 169 0.0 0.0 0.00 0.31 0.31 91 1027.1
20260901022609 61 169 0.0 0.0 0.00 0.31 0.31 91 1027.2
20260901022124 61 169 0.0 0.0 0.01 0.31 0.31 91 1027.4
20260901021601 61 169 0.0 0.0 0.01 0.31 0.31 91 1027.3
20260901021115 61 169 0.0 0.0 0.01 0.31 0.31 91 1027.4
20260901020629 61 169 0.0 0.0 0.01 0.31 0.31 90 1027.4
20260901020123 61 169 0.0 0.0 0.01 0.31 0.31 90 1027.4
20260901015616 61 169 0.0 0.0 0.01 0.31 0.31 90 1027.5
20260901015109 61 169 0.0 0.0 0.01 0.31 0.31 90 1027.6
20260901014604 61 169 0.0 0.0 0.01 0.31 0.31 89 1027.7
20260901014117 61 169 0.0 0.0 0.01 0.31 0.31 89 1027.6
20260901013611 61 169 0.0 0.0 0.01 0.31 0.31 89 1027.6
20260901013104 62 169 0.0 0.0 0.01 0.31 0.31 88 1027.7
20260901012602 62 169 0.0 0.0 0.01 0.31 0.31 88 1027.7
20260901012117 62 169 0.0 0.0 0.00 0.30 0.30 87 1027.5
20260901011610 62 169 0.0 0.0 0.00 0.30 0.30 86 1027.4
20260901011103 63 169 0.0 0.0 0.00 0.30 0.30 86 1027.3
20260901010618 63 169 0.0 0.9 0.00 0.30 0.30 87 1027.2
20260901010112 64 170 0.0 0.9 0.00 0.30 0.30 90 1027.1
20260901005606 64 162 0.0 0.9 0.00 0.30 0.30 91 1027.0
20260901005103 64 162 0.0 0.9 0.00 0.30 0.30 91 1026.9
20260901004617 64 162 0.0 0.0 0.00 0.30 0.30 91 1026.8
20260901004131 64 162 0.0 0.0 0.00 0.30 0.30 91 1026.8
20260901003603 64 162 0.0 0.0 0.01 0.30 0.30 91 1026.8
20260901003117 64 162 0.0 0.0 0.01 0.30 0.30 90 1026.8
20260901002610 64 162 0.0 0.0 0.02 0.30 0.30 90 1026.7
20260901002104 63 231 0.0 0.9 0.18 0.30 0.30 90 1026.6
20260901001618 63 232 0.0 1.7 0.30 0.30 0.30 90 1026.6
20260901001110 63 231 0.9 1.7 0.30 0.30 0.30 91 1026.6
20260901000609 63 231 0.0 0.0 0.30 0.30 0.30 89 1026.5
20260831235617 63 231 0.0 0.9 0.30 0.30 0.30 89 1026.3
20260831235111 63 213 0.0 0.0 0.30 0.30 0.30 86 1026.0
20260831234604 63 213 0.0 0.0 0.30 0.30 0.30 85 1026.0
20260831234118 64 213 0.0 0.9 0.30 0.30 0.30 82 1026.0
20260831233633 64 213 0.0 0.9 0.29 0.29 0.29 80 1026.0
20260831233106 66 213 0.0 2.6 0.29 0.29 0.29 71 1025.9
20260831232625 69 212 1.7 2.6 0.28 0.28 0.28 67 1026.2
20260831232138 72 209 0.0 5.2 0.12 0.12 0.12 66 1025.5
20260831231610 73 38 2.6 7.0 0.00 0.00 0.00 54 1025.0
20260831231105 73 30 2.6 7.0 0.00 0.00 0.00 52 1024.7
20260831230618 74 34 3.5 6.1 0.00 0.00 0.00 51 1024.8
20260831230110 74 57 2.6 4.3 0.00 0.00 0.00 49 1024.9
20260831225604 75 198 0.0 9.6 0.00 0.00 0.00 52 1025.1
20260831225118 75 116 1.7 7.8 0.00 0.00 0.00 47 1025.0
20260831224612 76 25 2.6 13.0 0.00 0.00 0.00 44 1024.9
20260831224125 77 5 3.5 13.0 0.00 0.00 0.00 43 1024.8
20260831223602 78 91 1.7 6.1 0.00 0.00 0.00 43 1024.8
20260831223115 78 130 1.7 6.1 0.00 0.00 0.00 41 1025.0
20260831222609 79 141 1.7 6.1 0.00 0.00 0.00 40 1025.0
20260831222103 80 153 2.6 5.2 0.00 0.00 0.00 40 1025.0
20260831221617 80 86 0.9 4.3 0.00 0.00 0.00 38 1024.9
20260831221111 81 69 1.7 3.5 0.00 0.00 0.00 39 1025.0
20260831220624 82 140 1.7 6.1 0.00 0.00 0.00 35 1025.0
20260831220118 82 211 1.7 7.0 0.00 0.00 0.00 34 1025.0
20260831215633 83 103 1.7 6.1 0.00 0.00 0.00 30 1025.0
20260831215109 83 333 1.7 6.1 0.00 0.00 0.00 33 1025.0
20260831214603 83 174 0.9 3.5 0.00 0.00 0.00 32 1024.9
20260831214117 83 160 1.7 3.5 0.00 0.00 0.00 32 1025.1
20260831213611 83 360 0.9 7.0 0.00 0.00 0.00 31 1025.3
20260831213125 84 155 2.6 7.0 0.00 0.00 0.00 31 1025.3
20260831212638 84 355 1.7 6.1 0.00 0.00 0.00 32 1025.3
20260831212112 84 127 1.7 5.2 0.00 0.00 0.00 31 1025.4
20260831211604 83 221 1.7 4.3 0.00 0.00 0.00 32 1025.5
20260831211118 82 27 1.7 5.2 0.00 0.00 0.00 34 1025.5
20260831210612 82 102 1.7 5.2 0.00 0.00 0.00 34 1025.5
20260831210111 82 60 2.6 4.3 0.00 0.00 0.00 35 1025.6
20260831205603 82 251 2.6 7.0 0.00 0.00 0.00 33 1025.7
20260831205118 82 304 2.6 7.0 0.00 0.00 0.00 32 1025.8
20260831204611 81 126 1.7 4.3 0.00 0.00 0.00 36 1025.8
20260831204104 81 128 1.7 4.3 0.00 0.00 0.00 38 1025.7
20260831203618 80 172 1.7 4.3 0.00 0.00 0.00 40 1025.9
20260831203111 79 296 1.7 4.3 0.00 0.00 0.00 40 1025.9
20260831202605 79 315 0.0 0.0 0.00 0.00 0.00 38 1026.0
20260831202120 79 281 0.0 1.7 0.00 0.00 0.00 37 1026.0
20260831201617 79 252 0.0 5.2 0.00 0.00 0.00 38 1026.1
20260831201111 79 232 1.7 5.2 0.00 0.00 0.00 38 1026.1
20260831200605 79 265 0.9 5.2 0.00 0.00 0.00 39 1026.1
20260831200120 79 302 2.6 4.3 0.00 0.00 0.00 39 1026.1
20260831195614 79 318 1.7 3.5 0.00 0.00 0.00 39 1026.2
20260831195107 78 263 0.9 2.6 0.00 0.00 0.00 37 1026.4
20260831194601 78 192 0.9 3.5 0.00 0.00 0.00 39 1026.5
20260831194115 78 315 1.7 3.5 0.00 0.00 0.00 39 1026.7
20260831193612 78 311 1.7 3.5 0.00 0.00 0.00 39 1026.7
20260831193126 78 85 0.9 3.5 0.00 0.00 0.00 40 1026.7
20260831192620 78 299 1.7 3.5 0.00 0.00 0.00 40 1026.7
20260831192114 78 163 2.6 3.5 0.00 0.00 0.00 36 1026.8
20260831191608 78 323 1.7 3.5 0.00 0.00 0.00 35 1026.9
20260831191103 79 39 0.9 3.5 0.00 0.00 0.00 36 1026.8
20260831190619 79 40 0.0 3.5 0.00 0.00 0.00 34 1026.8
20260831190113 79 217 0.9 3.5 0.00 0.00 0.00 35 1026.8
20260831185611 79 56 1.7 4.3 0.00 0.00 0.00 37 1027.0
20260831185103 78 168 2.6 4.3 0.00 0.00 0.00 38 1027.1
20260831184637 77 144 1.7 6.1 0.00 0.00 0.00 38 1027.3
20260831184110 77 30 1.7 6.1 0.00 0.00 0.00 40 1027.4
20260831183603 77 39 0.0 3.5 0.00 0.00 0.00 40 1027.4
20260831183117 77 124 1.7 4.3 0.00 0.00 0.00 37 1027.4
20260831182610 77 55 2.6 4.3 0.00 0.00 0.00 37 1027.5
20260831182104 77 42 1.7 6.1 0.00 0.00 0.00 38 1027.6
20260831181617 77 221 0.9 6.1 0.00 0.00 0.00 38 1027.7
20260831181115 77 151 1.7 4.3 0.00 0.00 0.00 41 1027.7
20260831180630 77 162 1.7 3.5 0.00 0.00 0.00 38 1027.8
20260831175614 77 291 1.7 4.3 0.00 0.00 0.00 37 1027.9
20260831175108 77 177 3.5 6.1 0.00 0.00 0.00 38 1027.9
20260831174602 76 157 2.6 6.1 0.00 0.00 0.00 39 1027.8
20260831174117 76 153 2.6 5.2 0.00 0.00 0.00 42 1027.8